sat.trackr.live / text

‹ back to catalog

VINDLER 2.1

NORAD 68488 · 2026-067CA

PAYLOAD ACTIVE UNKNOWN

§ Identity

Operator
Country
US
Launch date
2026-03-30
Launch site
AFWTR
Launch vehicle
Mass (kg)
RCS (m²)

External: N2YO · Heavens-Above · Gunter

§ Orbital elements

Epoch: 2026-05-25T04:00:03.998880Z

Period
96.46 min
Inclination
97.7561°
Eccentricity
0.0003000
Mean motion
14.92885784 rev/d
Perigee alt
586.9 km
Apogee alt
591.0 km
Semi-major
6,967.1 km
B*
2.4611e-3
RAAN
103.7664°
Arg perigee
96.3577°
Mean anomaly
226.6372°
Rev number
130

§ Raw data

VINDLER 2.11 68488U 26067CA  26145.16671295  .00025534  00000+0  24611-2 0  99942 68488  97.7561 103.7664 0003000  96.3577 226.6372 14.92885784  1306

JSON: /api/v1/satellites/68488 · /tle

For live sub-satellite position, see the globe view (requires WebGL).

§ Visibility from observer

Set your observer location to see the next 7 days of passes ≥ 10°. The values pass through the URL so the page stays shareable.

No JS? Fill the form by hand. The geolocation button needs JavaScript.